Location: Unspecified
(40.7945°N, 0.0000°E)
Time: 05:55:43
(UTC+00:00)

Tiros 1 despin weight - Pass Details

Date: 21 January 2021
Orbit: 593 x 642 km, 48.2° (Epoch: 06 March)

Event Time Altitude Azimuth Distance (km) Brightness Sun altitude
Rises 19:28:19 0° 297° (WNW) 2,848 ? -27.1°
Reaches altitude 10° 19:30:44 10° 305° (NW) 1,938 ? -27.5°
Enters shadow 19:33:14 28° 327° (NNW) 1,117 ? -28.0°
